This is the latest recevied weather packets stored in our database for station/object N5JXS. If no packets are shown the sender has not sent any weather packets the latest 10 day(s).
| Time | Temp. | Humidity | Pressure | Rain* | Wind** | Luminosity | Snow |
|---|---|---|---|---|---|---|---|
| 1777689253 | 3.89° C | 48% | 1024.1 hPa | 0 mm | - | 0 W/m² | - |
| 1777688951 | 3.89° C | 48% | 1024 hPa | 0 mm | - | 0 W/m² | - |
| 1777688647 | 3.89° C | 47% | 1024 hPa | 0 mm | - | 0 W/m² | - |
| 1777688344 | 3.89° C | 49% | 1023.9 hPa | 0 mm | - | 0 W/m² | - |
| 1777688041 | 3.89° C | 47% | 1023.9 hPa | 0 mm | - | 0 W/m² | - |
| 1777687738 | 3.89° C | 44% | 1023.9 hPa | 0 mm | - | 0 W/m² | - |
| 1777687436 | 3.89° C | 44% | 1023.7 hPa | 0 mm | - | 0 W/m² | - |
| 1777687133 | 4.44° C | 46% | 1023.7 hPa | 0 mm | - | 0 W/m² | - |
| 1777686830 | 5° C | 48% | 1024.1 hPa | 0 mm | - | 0 W/m² | - |
| 1777686527 | 5.56° C | 47% | 1024 hPa | 0 mm | - | 1 W/m² | - |
| 1777686224 | 6.11° C | 46% | 1023.9 hPa | 0 mm | - | 3 W/m² | - |
| 1777685920 | 6.67° C | 46% | 1023.7 hPa | 0 mm | - | 5 W/m² | - |
| 1777685616 | 7.22° C | 41% | 1023.6 hPa | 0 mm | - | 6 W/m² | - |
| 1777685312 | 7.78° C | 36% | 1023.4 hPa | 0 mm | - | 9 W/m² | - |
| 1777685011 | 7.78° C | 35% | 1023.6 hPa | 0 mm | - | 11 W/m² | - |
| 1777684707 | 7.78° C | 34% | 1023.4 hPa | 0 mm | - | 12 W/m² | - |
| 1777684403 | 8.33° C | 34% | 1023.5 hPa | 0 mm | - | 16 W/m² | - |
| 1777684101 | 8.33° C | 33% | 1023.5 hPa | 0 mm | - | 17 W/m² | - |
| 1777683797 | 8.33° C | 36% | 1023.4 hPa | 0 mm | - | 19 W/m² | - |
| 1777683494 | 8.33° C | 37% | 1023.5 hPa | 0 mm | - | 21 W/m² | - |
| 1777683192 | 8.33° C | 35% | 1023.5 hPa | 0 mm | - | 23 W/m² | - |
| 1777682889 | 8.89° C | 35% | 1023.2 hPa | 0 mm | - | 24 W/m² | - |
| 1777682585 | 8.89° C | 34% | 1023.4 hPa | 0 mm | - | 26 W/m² | - |
| 1777682283 | 8.89° C | 34% | 1023.2 hPa | 0 mm | - | 29 W/m² | - |
| 1777681980 | 8.89° C | 35% | 1023.4 hPa | 0 mm | - | 33 W/m² | - |
* Rain latest hour (hover to see other rain measurements)
** Current wind speed in m/s (hover to see current wind gust speed)